• In Uzbekistan
  • List of Countries
  • For 7 days
  • Water Temperature
  • Satellite Maps
  • Weather Map
  • Weather Widgets
  • user-avatar
    Login

    Hourly Weather Leribe

    Today, 16 December, Saturday

    Time Temperature Precipitation Wind Pressure Humidity
    00:00 +18°C° 0 mm 1 mps 630 mmHg 31%
    01:00 +16°C° 0 mm 1 mps 630 mmHg 31%
    02:00 +16°C° 0 mm 1 mps 630 mmHg 31%
    03:00 +16°C° 0 mm 1 mps 630 mmHg 34%
    04:00 +15°C° 0 mm 1 mps 630 mmHg 37%
    05:00 +15°C° 0 mm 1 mps 630 mmHg 40%
    06:00 +18°C° 0 mm 1 mps 631 mmHg 43%
    07:00 +19°C° 0 mm 2 mps 631 mmHg 47%
    08:00 +23°C° 0 mm 2 mps 632 mmHg 50%
    09:00 +25°C° 0 mm 2 mps 633 mmHg 44%
    10:00 +27°C° 0 mm 3 mps 633 mmHg 39%
    11:00 +29°C° 0 mm 3 mps 633 mmHg 34%
    12:00 +30°C° 0 mm 3 mps 633 mmHg 30%
    13:00 +32°C° 0 mm 4 mps 633 mmHg 26%
    14:00 +33°C° 0 mm 4 mps 632 mmHg 23%
    15:00 +32°C° 0 mm 4 mps 632 mmHg 23%
    16:00 +32°C° 0 mm 4 mps 632 mmHg 24%
    17:00 +30°C° 0 mm 4 mps 631 mmHg 24%
    18:00 +28°C° 0 mm 3 mps 631 mmHg 27%
    19:00 +26°C° 0 mm 2 mps 630 mmHg 31%
    20:00 +24°C° 0 mm 1 mps 629 mmHg 34%
    21:00 +24°C° 0 mm 1 mps 630 mmHg 35%
    22:00 +23°C° 0 mm 1 mps 630 mmHg 37%
    23:00 +22°C° 0 mm 1 mps 630 mmHg 38%

    Tomorrow, 17 December, Sunday

    Time Temperature Precipitation Wind Pressure Humidity
    00:00 +22°C° 0 mm 1 mps 630 mmHg 38%
    01:00 +22°C° 0 mm 1 mps 630 mmHg 37%
    02:00 +22°C° 0 mm 1 mps 630 mmHg 37%
    03:00 +22°C° 0.2 mm 1 mps 630 mmHg 42%
    04:00 +20°C° 0.2 mm 2 mps 630 mmHg 48%
    05:00 +20°C° 0.2 mm 2 mps 630 mmHg 53%
    06:00 +21°C° 0 mm 2 mps 630 mmHg 49%
    07:00 +23°C° 0 mm 2 mps 631 mmHg 46%
    08:00 +24°C° 0 mm 1 mps 631 mmHg 42%
    09:00 +26°C° 0 mm 2 mps 632 mmHg 37%
    10:00 +28°C° 0 mm 4 mps 632 mmHg 33%
    11:00 +30°C° 0 mm 5 mps 632 mmHg 28%
    12:00 +30°C° 0 mm 5 mps 632 mmHg 29%
    13:00 +30°C° 0 mm 6 mps 631 mmHg 30%
    14:00 +30°C° 0 mm 7 mps 631 mmHg 30%
    15:00 +29°C° 0 mm 6 mps 630 mmHg 32%
    16:00 +29°C° 0 mm 6 mps 630 mmHg 33%
    17:00 +28°C° 0 mm 5 mps 630 mmHg 35%
    18:00 +26°C° 0 mm 4 mps 629 mmHg 41%
    19:00 +24°C° 0 mm 2 mps 629 mmHg 47%
    20:00 +22°C° 0 mm 1 mps 628 mmHg 53%
    21:00 +22°C° 0.1 mm 1 mps 629 mmHg 53%
    22:00 +22°C° 0.1 mm 1 mps 630 mmHg 52%
    23:00 +22°C° 0.1 mm 1 mps 630 mmHg 51%

    Day after tomorrow, 18 December, Monday

    Time Temperature Precipitation Wind Pressure Humidity
    00:00 +21°C° 0 mm 1 mps 630 mmHg 55%
    01:00 +21°C° 0 mm 1 mps 629 mmHg 59%
    02:00 +20°C° 0 mm 1 mps 629 mmHg 62%
    03:00 +20°C° 0 mm 1 mps 628 mmHg 63%
    04:00 +19°C° 0 mm 1 mps 628 mmHg 64%
    05:00 +19°C° 0 mm 1 mps 628 mmHg 64%
    06:00 +20°C° 0 mm 2 mps 629 mmHg 58%
    07:00 +23°C° 0 mm 2 mps 629 mmHg 52%
    08:00 +25°C° 0 mm 3 mps 630 mmHg 46%
    09:00 +26°C° 0.1 mm 3 mps 630 mmHg 44%
    10:00 +26°C° 0.1 mm 4 mps 631 mmHg 42%
    11:00 +27°C° 0.1 mm 5 mps 631 mmHg 39%
    12:00 +28°C° 0.1 mm 4 mps 630 mmHg 38%
    13:00 +28°C° 0.1 mm 4 mps 630 mmHg 37%
    14:00 +28°C° 0.1 mm 4 mps 629 mmHg 35%
    15:00 +28°C° 0.1 mm 4 mps 629 mmHg 36%
    16:00 +28°C° 0.1 mm 4 mps 629 mmHg 37%
    17:00 +28°C° 0.1 mm 4 mps 628 mmHg 37%
    18:00 +26°C° 0.1 mm 3 mps 628 mmHg 44%
    19:00 +24°C° 0.1 mm 3 mps 628 mmHg 51%
    20:00 +21°C° 0.1 mm 2 mps 628 mmHg 58%
    21:00 +20°C° 0.8 mm 2 mps 628 mmHg 63%
    22:00 +19°C° 0.8 mm 3 mps 627 mmHg 68%
    23:00 +18°C° 0.8 mm 3 mps 627 mmHg 73%

    19 December, Tuesday

    Time Temperature Precipitation Wind Pressure Humidity
    00:00 +18°C° 1 mm 3 mps 627 mmHg 75%
    01:00 +18°C° 1 mm 2 mps 627 mmHg 77%
    02:00 +18°C° 1 mm 2 mps 627 mmHg 79%
    03:00 +18°C° 0.5 mm 2 mps 627 mmHg 79%
    04:00 +18°C° 0.5 mm 2 mps 627 mmHg 79%
    05:00 +18°C° 0.5 mm 2 mps 627 mmHg 79%
    06:00 +19°C° 0 mm 2 mps 627 mmHg 73%
    07:00 +20°C° 0 mm 2 mps 628 mmHg 67%
    08:00 +21°C° 0 mm 2 mps 628 mmHg 61%
    09:00 +22°C° 0.3 mm 3 mps 628 mmHg 58%
    10:00 +23°C° 0.3 mm 4 mps 628 mmHg 56%
    11:00 +23°C° 0.3 mm 4 mps 628 mmHg 54%
    12:00 +26°C° 0.2 mm 5 mps 628 mmHg 48%
    13:00 +27°C° 0.2 mm 5 mps 628 mmHg 43%
    14:00 +28°C° 0.2 mm 6 mps 628 mmHg 37%
    15:00 +28°C° 0 mm 6 mps 628 mmHg 33%
    16:00 +28°C° 0 mm 6 mps 628 mmHg 29%
    17:00 +29°C° 0 mm 6 mps 628 mmHg 25%
    18:00 +27°C° 0 mm 5 mps 628 mmHg 27%
    19:00 +25°C° 0 mm 4 mps 628 mmHg 30%
    20:00 +21°C° 0 mm 3 mps 628 mmHg 32%
    21:00 +20°C° 0 mm 3 mps 628 mmHg 35%
    22:00 +19°C° 0 mm 2 mps 628 mmHg 38%
    23:00 +19°C° 0 mm 1 mps 628 mmHg 41%

    20 December, Wednesday

    Time Temperature Precipitation Wind Pressure Humidity
    00:00 +19°C° 0 mm 1 mps 627 mmHg 43%
    01:00 +18°C° 0 mm 1 mps 627 mmHg 45%
    02:00 +18°C° 0 mm 1 mps 627 mmHg 47%
    03:00 +18°C° 0 mm 1 mps 627 mmHg 50%
    04:00 +16°C° 0 mm 1 mps 627 mmHg 54%
    05:00 +16°C° 0 mm 1 mps 628 mmHg 57%
    06:00 +18°C° 0 mm 2 mps 629 mmHg 50%
    07:00 +21°C° 0 mm 2 mps 630 mmHg 43%
    08:00 +25°C° 0 mm 2 mps 631 mmHg 36%
    09:00 +26°C° 0 mm 3 mps 631 mmHg 33%
    10:00 +28°C° 0 mm 3 mps 631 mmHg 30%
    11:00 +29°C° 0 mm 4 mps 631 mmHg 27%
    12:00 +29°C° 0 mm 4 mps 631 mmHg 27%
    13:00 +30°C° 0 mm 4 mps 630 mmHg 27%
    14:00 +30°C° 0 mm 4 mps 630 mmHg 27%
    15:00 +29°C° 0 mm 4 mps 630 mmHg 28%
    16:00 +29°C° 0 mm 4 mps 630 mmHg 28%
    17:00 +29°C° 0 mm 3 mps 630 mmHg 29%
    18:00 +27°C° 0 mm 3 mps 629 mmHg 33%
    19:00 +25°C° 0 mm 2 mps 629 mmHg 38%
    20:00 +23°C° 0 mm 1 mps 629 mmHg 42%
    21:00 +21°C° 0 mm 2 mps 629 mmHg 48%
    22:00 +20°C° 0 mm 2 mps 629 mmHg 53%
    23:00 +19°C° 0 mm 2 mps 630 mmHg 58%

    21 December, Thursday

    Time Temperature Precipitation Wind Pressure Humidity
    00:00 +19°C° 0.1 mm 2 mps 630 mmHg 63%
    01:00 +19°C° 0.1 mm 2 mps 629 mmHg 68%
    02:00 +18°C° 0.1 mm 2 mps 629 mmHg 73%
    03:00 +18°C° 0 mm 2 mps 629 mmHg 76%
    04:00 +17°C° 0 mm 2 mps 629 mmHg 79%
    05:00 +17°C° 0 mm 2 mps 629 mmHg 82%
    06:00 +19°C° 0 mm 3 mps 630 mmHg 76%
    07:00 +20°C° 0 mm 3 mps 630 mmHg 69%
    08:00 +22°C° 0 mm 4 mps 631 mmHg 62%
    09:00 +25°C° 0 mm 4 mps 631 mmHg 56%
    10:00 +26°C° 0 mm 4 mps 631 mmHg 50%
    11:00 +28°C° 0 mm 4 mps 631 mmHg 43%
    12:00 +28°C° 0.1 mm 4 mps 631 mmHg 40%
    13:00 +29°C° 0.1 mm 4 mps 631 mmHg 38%
    14:00 +30°C° 0.1 mm 4 mps 630 mmHg 35%
    15:00 +29°C° 0.1 mm 3 mps 630 mmHg 38%
    16:00 +28°C° 0.1 mm 3 mps 629 mmHg 40%
    17:00 +27°C° 0.1 mm 2 mps 628 mmHg 43%
    18:00 +26°C° 0.2 mm 2 mps 628 mmHg 48%
    19:00 +25°C° 0.2 mm 2 mps 628 mmHg 54%
    20:00 +23°C° 0.2 mm 1 mps 628 mmHg 59%
    21:00 +21°C° 1.2 mm 2 mps 628 mmHg 65%
    22:00 +21°C° 1.2 mm 2 mps 628 mmHg 71%
    23:00 +20°C° 1.2 mm 2 mps 629 mmHg 77%
    Show more